Regional Weather Roundup
Issued by NWS

Home | Current Version | Previous Version | Text Only | Print | Product List | Glossary On
Versions: 1 2 3 4 5 6 7 8 9 10 11 12 13 14 15 16 17 18 19 20 21 22 23 24 25 26 27 28 29 30 31 32 33 34 35 36 37 38 39 40 41 42 43 44 45 46 47 48 49 50
000
ASUS46 KPQR 050010
RWROR

OREGON REGIONAL WEATHER ROUNDUP
NATIONAL WEATHER SERVICE PORTLAND OR
500 PM PDT TUE AUG 04 2015

NOTE: "FAIR" INDICATES FEW OR NO CLOUDS BELOW 12,000 FEET WITH
NO SIGNIFICANT WEATHER AND/OR OBSTRUCTIONS TO VISIBILITY.

ORZ001>013-050100-
NORTHWEST OREGON


CITY           SKY/WX    TMP DP  RH WIND       PRES   REMARKS
ASTORIA        SUNNY     68  54  60 NW17      30.07S
6HR MIN TEMP:  67; 6HR MAX TEMP:  71;

NEWPORT        SUNNY     61  54  77 N16G25    30.07R
PORTLAND       MOSUNNY   82  49  31 NW12      29.95F
6HR MIN TEMP:  69; 6HR MAX TEMP:  83;

VANCOUVER WA   SUNNY     81  48  31 NW10G17   29.95F
6HR MIN TEMP:  68; 6HR MAX TEMP:  82;

SCAPPOOSE      SUNNY     82  48  30 W10G20    29.95F
6HR MIN TEMP:  71; 6HR MAX TEMP:  83;

HILLSBORO      SUNNY     82  44  26 NW15      29.95F
6HR MIN TEMP:  69; 6HR MAX TEMP:  83;

AURORA         SUNNY     83  41  22 NW7       29.95F
6HR MIN TEMP:  70; 6HR MAX TEMP:  84;

MCMINNVILLE    SUNNY     84  51  31 CALM      29.95F
6HR MIN TEMP:  72; 6HR MAX TEMP:  86;

SALEM          SUNNY     85  43  22 N10       29.94F
6HR MIN TEMP:  71; 6HR MAX TEMP:  85;

CORVALLIS      SUNNY     88  50  27 NW14G20   29.95F
EUGENE         NOT AVBL
$$

ORZ021-028-050100-
SOUTHWEST OREGON


CITY           SKY/WX    TMP DP  RH WIND       PRES   REMARKS
NORTH BEND     SUNNY     64  55  72 N22G33    30.03S
6HR MIN TEMP:  64; 6HR MAX TEMP:  66;

BROOKINGS      CLOUDY    63  60  90 VRB5      30.00S
ROSEBURG       SUNNY     89  51  27 N9        29.91S
6HR MIN TEMP:  72; 6HR MAX TEMP:  90;

SEXTON SUMMIT  SUNNY     76  49  38 N8        30.04S
6HR MIN TEMP:  69; 6HR MAX TEMP:  79;

MEDFORD        MOSUNNY   93  55  27 NW13      29.85F HAZE    HX  91
6HR MIN TEMP:  77; 6HR MAX TEMP:  94;

$$

ORZ014>016-041-050100-
COLUMBIA GORGE


CITY           SKY/WX    TMP DP  RH WIND       PRES   REMARKS
TROUTDALE      SUNNY     83  47  28 VRB5      29.93F
6HR MIN TEMP:  68; 6HR MAX TEMP:  83;

THE DALLES     SUNNY     89  32  13 W23G30    29.83F
6HR MIN TEMP:  80; 6HR MAX TEMP:  90;

$$

ORZ029>031-041-044-049-050-061>064-502-503-505>511-050100-
EASTERN OREGON


CITY           SKY/WX    TMP DP  RH WIND       PRES   REMARKS
REDMOND        SUNNY     88  41  19 NW17      29.92F
6HR MIN TEMP:  78; 6HR MAX TEMP:  90;

BEND           SUNNY     84  39  20 NW12G20   29.94F
PRINEVILLE     SUNNY     86  39  19 NW12G21   29.93F
KLAMATH FALLS  PTSUNNY   84  41  21 NW13      29.99F
6HR MIN TEMP:  73; 6HR MAX TEMP:  86;

LAKEVIEW       MOSUNNY   84  36  17 W13G18    30.01F
HERMISTON      SUNNY     93  42  17 W16       29.78F
6HR MIN TEMP:  83; 6HR MAX TEMP:  94;

PENDLETON      SUNNY     89  41  18 W15       29.83F
JOHN DAY       MOSUNNY   87  39  18 W9        29.94S
MEACHAM        SUNNY     81  39  22 VRB5      29.97F
6HR MIN TEMP:  76; 6HR MAX TEMP:  84;

LA GRANDE      MOSUNNY   86  43  22 CALM      29.87F
6HR MIN TEMP:  77; 6HR MAX TEMP:  90;

BAKER CITY     NOT AVBL
BURNS          SUNNY     87  39  18 W12       29.98F
6HR MIN TEMP:  71; 6HR MAX TEMP:  88;

ROME             N/A     90  35  14 E9        29.93F
6HR MIN TEMP:  82; 6HR MAX TEMP:  95;

ONTARIO        SUNNY     93  49  22 E6        29.84F HX  90
6HR MIN TEMP:  82; 6HR MAX TEMP:  93;

$$


USA.gov is the U.S. government's official web portal to all federal, state and local government web resources and services.